FW8563 Weather Reports


Display with metric or nautical units.
time (UTC)temp
F
wind
direction
speed
MPH
gust
MPH
rain 1hr
in
rain 24hr
in
rain mn
in
humidity
%
barometer
mb
20260508024932 56 358 6.0 10.0 0.00 0.01 0.00 82 1012.5
20260508024432 56 42 6.0 12.0 0.00 0.01 0.00 82 1012.5
20260508023932 56 15 6.0 12.0 0.00 0.01 0.00 82 1012.5
20260508022932 56 16 7.0 12.0 0.00 0.01 0.00 82 1012.6
20260508021932 56 17 8.0 13.0 0.00 0.01 0.00 82 1012.5
20260508021432 56 4 8.0 17.0 0.00 0.01 0.00 82 1012.5
20260508020933 56 13 9.0 17.0 0.00 0.01 0.00 81 1012.6
20260508020434 56 13 8.0 16.0 0.00 0.01 0.00 81 1012.6
20260508015933 56 6 7.0 12.0 0.00 0.01 0.00 81 1012.7
20260508015434 56 12 8.0 14.0 0.00 0.01 0.00 81 1012.7
20260508014932 56 15 7.0 14.0 0.00 0.01 0.00 80 1012.8
20260508014430 56 351 6.0 12.0 0.00 0.01 0.00 80 1012.9
20260508013932 56 9 6.0 11.0 0.00 0.01 0.00 80 1012.9
20260508012927 57 2 7.0 13.0 0.00 0.01 0.00 79 1013.2
20260508012428 57 22 6.0 13.0 0.00 0.01 0.00 78 1013.2
20260508011927 57 340 6.0 13.0 0.00 0.01 0.00 78 1013.1
20260508011427 57 28 6.0 12.0 0.00 0.01 0.00 79 1013.2
20260508010925 56 346 6.0 12.0 0.00 0.01 0.00 79 1013.1
20260508005929 56 15 5.0 9.0 0.00 0.01 0.00 79 1013.3
20260508004925 56 354 4.0 9.0 0.00 0.01 0.00 79 1013.3
20260508003926 56 340 3.0 7.0 0.00 0.01 0.00 80 1013.4
20260508003424 56 31 3.0 5.0 0.00 0.01 0.00 80 1013.4
20260508002924 56 27 3.0 7.0 0.00 0.01 0.00 80 1013.5
20260508002426 56 356 3.0 7.0 0.00 0.01 0.00 79 1013.5
20260508001924 56 12 3.0 6.0 0.00 0.02 0.00 79 1013.6
20260508001427 56 1 3.0 6.0 0.00 0.03 0.00 79 1013.5
20260508000928 56 355 3.0 6.0 0.00 0.04 0.00 79 1013.6
20260508000427 56 335 3.0 8.0 0.00 0.06 0.00 79 1013.7
20260507235926 56 342 3.0 8.0 0.00 0.06 0.00 79 1013.7
20260507235426 56 335 3.0 7.0 0.00 0.08 0.00 79 1013.8
20260507234923 56 349 3.0 7.0 0.00 0.09 0.00 79 1013.8
20260507234421 56 2 3.0 7.0 0.00 0.10 0.00 79 1013.8
20260507233920 56 18 4.0 8.0 0.00 0.11 0.00 80 1014.0
20260507233420 56 6 4.0 9.0 0.00 0.11 0.00 80 1014.0
20260507232919 56 299 3.0 9.0 0.00 0.12 0.00 81 1014.0
20260507232414 56 349 3.0 6.0 0.00 0.12 0.00 81 1014.1
20260507231914 56 332 3.0 6.0 0.00 0.12 0.00 80 1014.2
20260507230416 57 345 2.0 5.0 0.00 0.13 0.00 79 1014.5
20260507225914 57 333 2.0 6.0 0.00 0.14 0.00 79 1014.5
20260507225413 57 12 3.0 6.0 0.00 0.14 0.00 79 1014.6
20260507224417 57 322 3.0 6.0 0.00 0.14 0.00 79 1014.7
20260507223911 57 335 3.0 7.0 0.00 0.14 0.00 78 1014.9
20260507222913 57 359 2.0 7.0 0.00 0.14 0.00 80 1014.8
20260507222410 57 358 2.0 5.0 0.00 0.15 0.00 80 1014.9
20260507221404 57 352 3.0 6.0 0.00 0.15 0.00 80 1015.2
20260507220904 57 320 2.0 6.0 0.00 0.15 0.00 80 1015.1
20260507220401 58 342 2.0 5.0 0.00 0.15 0.00 78 1015.1
20260507215901 58 349 2.0 4.0 0.00 0.15 0.15 77 1015.0
20260507215402 58 349 2.0 6.0 0.00 0.15 0.15 77 1015.0
20260507214902 58 349 3.0 6.0 0.00 0.15 0.15 76 1015.0
20260507214402 58 5 4.0 6.0 0.00 0.15 0.15 77 1014.9
20260507213902 58 347 3.0 5.0 0.00 0.15 0.15 77 1014.9
20260507213405 58 0 2.0 5.0 0.00 0.15 0.15 77 1014.9
20260507212905 58 15 2.0 4.0 0.00 0.15 0.15 77 1014.9
20260507212402 58 6 2.0 3.0 0.00 0.15 0.15 78 1014.9
20260507211906 58 341 1.0 3.0 0.00 0.15 0.15 78 1014.9
20260507211404 58 345 1.0 3.0 0.00 0.15 0.15 78 1015.0
20260507210401 58 344 2.0 3.0 0.00 0.15 0.15 77 1015.0
20260507205856 58 338 1.0 3.0 0.00 0.15 0.15 77 1014.9
20260507205352 58 347 1.0 3.0 0.00 0.15 0.15 78 1015.0
20260507204852 58 350 1.0 3.0 0.00 0.15 0.15 78 1015.0
20260507204352 59 346 1.0 3.0 0.00 0.15 0.15 77 1015.0
20260507203851 59 6 1.0 4.0 0.00 0.15 0.15 76 1015.0
20260507203351 60 7 2.0 5.0 0.00 0.15 0.15 75 1015.0
20260507202849 60 7 3.0 6.0 0.00 0.15 0.15 75 1015.0
20260507202349 60 13 3.0 6.0 0.00 0.15 0.15 75 1015.0
20260507201849 60 352 3.0 6.0 0.00 0.15 0.15 75 1015.0
20260507201351 60 15 3.0 6.0 0.00 0.15 0.15 75 1015.0
20260507200849 60 27 2.0 6.0 0.00 0.15 0.15 75 1014.9
20260507200347 60 341 2.0 6.0 0.00 0.15 0.15 75 1014.9
20260507195849 60 25 2.0 4.0 0.00 0.15 0.15 75 1014.9
20260507195348 60 359 2.0 4.0 0.00 0.15 0.15 76 1014.9
20260507194841 60 17 1.0 3.0 0.00 0.15 0.15 76 1014.8
20260507194344 60 12 1.0 4.0 0.00 0.15 0.15 75 1014.9
20260507193844 60 346 1.0 4.0 0.00 0.15 0.15 75 1014.9
20260507193341 60 343 1.0 3.0 0.00 0.15 0.15 75 1014.7
20260507192844 61 22 1.0 3.0 0.00 0.15 0.15 74 1014.8
20260507192342 61 353 1.0 2.0 0.00 0.15 0.15 74 1014.6
20260507191842 61 1 0.0 2.0 0.00 0.15 0.15 74 1014.6
20260507191342 61 11 0.0 2.0 0.00 0.15 0.15 73 1014.7
20260507190841 61 8 0.0 0.0 0.00 0.15 0.15 73 1014.7
20260507185342 62 15 0.0 0.0 0.00 0.17 0.15 72 1014.8
20260507184343 62 4 0.0 0.0 0.00 0.17 0.15 70 1014.8
20260507183841 62 148 0.0 0.0 0.00 0.17 0.15 68 1014.8
20260507183343 62 148 0.0 0.0 0.00 0.17 0.15 70 1014.8
20260507182844 62 147 0.0 0.0 0.00 0.17 0.15 69 1014.7
20260507182343 63 148 0.0 0.0 0.00 0.17 0.15 71 1014.8
20260507181841 64 148 0.0 0.0 0.00 0.17 0.15 68 1014.8
20260507181342 65 148 0.0 0.0 0.00 0.17 0.15 67 1014.8
20260507180842 65 148 0.0 0.0 0.00 0.17 0.15 66 1014.8
20260507180337 66 148 0.0 0.0 0.00 0.17 0.15 64 1014.9
20260507175846 67 148 0.0 0.0 0.00 0.17 0.15 63 1014.8
20260507175339 67 148 0.0 0.0 0.00 0.17 0.15 63 1014.8
20260507174839 67 148 0.0 0.0 0.00 0.17 0.15 63 1014.8
20260507174337 67 145 0.0 0.0 0.00 0.17 0.15 62 1014.8
20260507173837 67 165 0.0 0.0 0.00 0.17 0.15 63 1014.8
20260507173337 67 207 0.0 0.0 0.00 0.17 0.15 62 1014.7
20260507172337 68 167 0.0 0.0 0.00 0.17 0.15 63 1014.7
20260507171837 67 147 0.0 0.0 0.00 0.17 0.15 63 1014.8
20260507170839 68 129 0.0 0.0 0.00 0.17 0.15 60 1014.6
20260507170339 69 148 0.0 0.0 0.00 0.17 0.15 59 1014.7
20260507165837 69 226 0.0 0.0 0.00 0.17 0.15 59 1014.7
20260507164835 68 207 0.0 2.0 0.00 0.17 0.15 59 1014.7
20260507164333 68 181 1.0 2.0 0.00 0.17 0.15 60 1014.6
20260507163830 68 135 0.0 2.0 0.00 0.17 0.15 57 1014.6
20260507163321 69 127 0.0 2.0 0.00 0.17 0.15 58 1014.6
20260507162319 69 202 0.0 3.0 0.00 0.17 0.15 57 1014.6
20260507161817 69 136 0.0 3.0 0.00 0.17 0.15 58 1014.6
20260507161320 69 253 0.0 3.0 0.00 0.17 0.15 58 1014.7
20260507160817 69 222 0.0 2.0 0.00 0.17 0.15 58 1014.7
20260507160315 69 213 0.0 2.0 0.00 0.17 0.15 58 1014.7
20260507155813 69 254 1.0 5.0 0.00 0.17 0.15 58 1014.5
20260507155313 68 215 1.0 5.0 0.00 0.17 0.15 59 1014.6
20260507154814 68 225 1.0 5.0 0.00 0.17 0.15 60 1014.7
20260507153817 68 224 2.0 6.0 0.00 0.17 0.15 59 1014.7
20260507153314 68 229 2.0 6.0 0.00 0.17 0.15 60 1014.7
20260507152813 68 206 2.0 6.0 0.00 0.17 0.15 60 1014.8
20260507152310 68 222 2.0 5.0 0.00 0.17 0.15 60 1014.8
20260507151805 68 153 2.0 5.0 0.00 0.17 0.15 59 1014.8
20260507151300 68 212 2.0 5.0 0.00 0.17 0.15 59 1014.8
20260507150756 68 143 2.0 6.0 0.00 0.17 0.15 60 1014.9
20260507150253 68 214 2.0 6.0 0.00 0.17 0.15 59 1014.8
20260507145753 69 147 1.0 5.0 0.00 0.17 0.15 59 1014.9
20260507145252 68 75 1.0 6.0 0.00 0.17 0.15 59 1014.9
20260507144751 69 160 2.0 6.0 0.00 0.17 0.15 60 1014.9
20260507143752 68 219 1.0 5.0 0.00 0.17 0.15 62 1014.9
20260507143249 67 159 2.0 6.0 0.00 0.17 0.15 62 1015.0
20260507142751 67 146 2.0 6.0 0.00 0.17 0.15 61 1015.1
20260507142250 67 82 2.0 6.0 0.00 0.17 0.15 63 1015.1
20260507141749 67 109 2.0 6.0 0.00 0.17 0.15 63 1015.1
20260507140748 67 212 2.0 6.0 0.00 0.17 0.15 65 1015.1
20260507140246 67 155 2.0 8.0 0.00 0.17 0.15 64 1015.3
20260507135743 67 242 2.0 8.0 0.00 0.17 0.15 65 1015.3
20260507135242 67 216 2.0 8.0 0.00 0.17 0.15 65 1015.4
20260507134744 67 135 3.0 9.0 0.00 0.17 0.15 66 1015.4
20260507134242 67 250 2.0 9.0 0.00 0.17 0.15 69 1015.5
20260507133743 67 189 2.0 5.0 0.00 0.17 0.15 66 1015.6
20260507133243 67 142 2.0 6.0 0.00 0.17 0.15 66 1015.8
20260507132741 67 190 2.0 6.0 0.00 0.17 0.15 67 1015.8
20260507132242 66 147 2.0 9.0 0.00 0.18 0.15 69 1015.8
20260507131743 66 105 3.0 9.0 0.00 0.18 0.15 68 1015.8
20260507131244 66 115 4.0 8.0 0.00 0.18 0.15 68 1015.9
20260507130741 66 150 3.0 8.0 0.00 0.18 0.15 67 1016.0
20260507130241 65 139 3.0 9.0 0.00 0.18 0.15 69 1016.1
20260507125741 66 158 3.0 9.0 0.00 0.18 0.15 66 1016.2
20260507125240 66 148 2.0 7.0 0.00 0.18 0.15 68 1016.2
20260507124734 66 186 2.0 7.0 0.00 0.18 0.15 69 1016.2
20260507124228 65 137 2.0 7.0 0.00 0.18 0.15 68 1016.1
20260507123725 65 203 3.0 7.0 0.00 0.18 0.15 69 1016.2
20260507123223 65 101 2.0 7.0 0.00 0.18 0.15 67 1016.1
20260507122725 65 239 2.0 7.0 0.00 0.18 0.15 68 1016.1
20260507121722 65 132 3.0 10.0 0.00 0.18 0.15 67 1016.0
20260507121222 65 132 3.0 10.0 0.00 0.18 0.15 67 1016.0
20260507120721 65 122 2.0 7.0 0.00 0.18 0.15 66 1016.0
20260507120219 65 217 2.0 7.0 0.00 0.18 0.15 67 1016.0
20260507115718 65 113 2.0 7.0 0.00 0.18 0.15 66 1016.0
20260507115220 66 158 2.0 6.0 0.00 0.18 0.15 66 1016.0
20260507114719 66 147 2.0 10.0 0.00 0.18 0.15 68 1016.1
20260507113719 66 119 3.0 9.0 0.00 0.18 0.15 66 1016.0
20260507113219 67 210 2.0 9.0 0.00 0.18 0.15 66 1016.1
20260507112715 66 71 2.0 8.0 0.00 0.18 0.15 65 1016.1
20260507112217 65 170 2.0 7.0 0.00 0.18 0.15 66 1016.2
20260507111716 65 146 2.0 7.0 0.00 0.18 0.15 63 1016.4
20260507111216 65 220 2.0 7.0 0.00 0.18 0.15 68 1016.2
20260507110714 65 145 2.0 7.0 0.00 0.18 0.15 69 1016.4
20260507110212 64 268 2.0 6.0 0.00 0.18 0.15 72 1016.2
20260507105710 64 191 3.0 7.0 0.00 0.18 0.15 73 1016.2
20260507105211 64 145 3.0 7.0 0.00 0.18 0.15 73 1016.5
20260507104711 64 202 3.0 6.0 0.00 0.18 0.15 73 1016.4
20260507104208 64 184 2.0 6.0 0.00 0.18 0.15 73 1016.5
20260507103709 63 231 2.0 6.0 0.00 0.18 0.15 74 1016.4
20260507102206 62 128 2.0 8.0 0.00 0.18 0.15 78 1016.5
20260507101701 62 212 2.0 6.0 0.00 0.18 0.15 83 1016.5
20260507101203 62 120 2.0 6.0 0.00 0.18 0.15 86 1016.6
20260507100700 61 181 2.0 8.0 0.00 0.18 0.15 89 1016.6
20260507095704 60 243 1.0 7.0 0.00 0.18 0.15 94 1016.6
20260507095201 59 208 1.0 5.0 0.00 0.18 0.15 97 1016.6
20260507094701 59 213 2.0 5.0 0.00 0.18 0.15 98 1016.6
20260507092201 57 193 2.0 7.0 0.01 0.18 0.15 98 1016.7
20260507091700 57 145 1.0 5.0 0.01 0.18 0.15 98 1016.6
20260507091155 57 141 2.0 5.0 0.01 0.18 0.15 98 1016.6
20260507090655 56 154 2.0 6.0 0.01 0.18 0.15 98 1016.7
20260507090200 56 135 1.0 6.0 0.01 0.18 0.15 98 1016.7
20260507085655 56 115 1.0 5.0 0.01 0.18 0.15 98 1016.7
20260507085156 56 154 1.0 5.0 0.01 0.18 0.15 98 1016.7
20260507084157 56 207 1.0 5.0 0.01 0.18 0.15 98 1016.6
20260507083707 56 136 1.0 5.0 0.01 0.18 0.15 98 1016.7
20260507083155 56 184 1.0 5.0 0.01 0.18 0.15 99 1016.7
20260507082655 56 106 1.0 5.0 0.01 0.18 0.15 99 1016.7
20260507082157 56 122 1.0 5.0 0.00 0.17 0.14 99 1016.7
20260507081155 56 150 2.0 5.0 0.00 0.17 0.14 99 1016.6
20260507075657 56 137 1.0 3.0 0.00 0.17 0.14 99 1016.7
20260507075155 55 168 1.0 3.0 0.00 0.17 0.14 99 1016.7
20260507074654 55 143 0.0 3.0 0.00 0.17 0.14 99 1016.7
20260507074157 55 123 0.0 2.0 0.00 0.17 0.14 99 1016.6
20260507073155 55 152 1.0 4.0 0.00 0.17 0.14 99 1016.5
20260507072654 54 164 1.0 4.0 0.00 0.17 0.14 99 1016.6
20260507072155 54 223 1.0 4.0 0.00 0.17 0.14 99 1016.6
20260507071147 55 209 0.0 1.0 0.00 0.17 0.14 99 1016.6
20260507070642 54 143 0.0 1.0 0.00 0.17 0.14 99 1016.4
20260507070138 54 150 0.0 2.0 0.00 0.17 0.14 99 1016.5
20260507065638 54 229 1.0 2.0 0.00 0.17 0.14 99 1016.4
20260507065141 54 128 1.0 4.0 0.00 0.17 0.14 99 1016.2
20260507064636 54 126 0.0 4.0 0.00 0.17 0.14 99 1016.2
20260507064134 54 131 1.0 2.0 0.00 0.17 0.14 99 1016.1
20260507063633 54 209 0.0 2.0 0.00 0.17 0.14 99 1016.2
20260507063133 54 165 0.0 2.0 0.00 0.17 0.14 99 1016.1
20260507062631 54 140 1.0 5.0 0.00 0.17 0.14 99 1016.1
20260507062133 54 219 1.0 5.0 0.00 0.17 0.14 99 1016.1
20260507061630 54 226 0.0 4.0 0.00 0.17 0.14 99 1016.0
20260507061130 54 151 0.0 2.0 0.00 0.17 0.14 99 1015.9
20260507060631 54 220 0.0 2.0 0.00 0.17 0.14 99 1015.9
20260507060130 54 150 0.0 1.0 0.00 0.17 0.14 99 1016.0
20260507055631 54 114 0.0 2.0 0.00 0.17 0.14 99 1015.9
20260507055130 54 148 0.0 2.0 0.00 0.17 0.14 99 1015.9
20260507054130 53 212 0.0 2.0 0.00 0.17 0.14 99 1016.0
20260507053629 53 217 0.0 2.0 0.00 0.17 0.14 99 1016.0
20260507053130 53 200 0.0 2.0 0.00 0.18 0.14 99 1015.9
20260507052629 53 208 0.0 2.0 0.00 0.18 0.14 99 1015.9
20260507052126 53 198 0.0 1.0 0.00 0.18 0.14 99 1015.8
20260507051625 53 214 0.0 1.0 0.00 0.19 0.14 99 1015.8
20260507050622 53 134 0.0 2.0 0.00 0.20 0.14 99 1015.8
20260507050122 53 200 0.0 4.0 0.00 0.20 0.14 99 1015.7
20260507045623 53 227 1.0 4.0 0.00 0.20 0.14 99 1015.8
20260507045119 53 203 0.0 3.0 0.00 0.20 0.14 99 1015.8
20260507044620 53 218 0.0 3.0 0.00 0.20 0.14 99 1015.6
20260507044119 53 233 1.0 3.0 0.00 0.20 0.14 99 1015.5
20260507043619 53 212 1.0 4.0 0.00 0.20 0.14 99 1015.5
20260507043121 53 226 1.0 4.0 0.00 0.20 0.14 99 1015.4
20260507042617 53 226 1.0 4.0 0.00 0.20 0.14 99 1015.4
20260507042114 53 223 0.0 4.0 0.00 0.20 0.14 99 1015.4
20260507041617 53 226 0.0 3.0 0.00 0.20 0.14 99 1015.4
20260507041117 53 174 1.0 4.0 0.00 0.20 0.14 99 1015.4
20260507040616 53 212 1.0 4.0 0.00 0.20 0.14 99 1015.3
20260507040118 53 223 1.0 3.0 0.00 0.20 0.14 99 1015.4
20260507035617 53 207 1.0 5.0 0.00 0.20 0.14 99 1015.3
20260507035116 53 199 1.0 5.0 0.00 0.21 0.14 99 1015.3
20260507034615 53 181 1.0 5.0 0.00 0.21 0.14 98 1015.2
20260507034114 53 148 1.0 6.0 0.00 0.21 0.14 99 1015.3
20260507033113 53 149 1.0 6.0 0.00 0.21 0.14 99 1015.2
20260507032614 53 231 2.0 5.0 0.00 0.21 0.14 99 1015.2
20260507032112 53 131 1.0 4.0 0.00 0.21 0.14 99 1015.3
20260507031614 53 127 1.0 7.0 0.00 0.21 0.14 99 1015.2